This is the latest recevied weather packets stored in our database for station/object K1BWE-1. If no packets are shown the sender has not sent any weather packets the latest 10 day(s).
| Time | Temp. | Humidity | Pressure | Rain* | Wind** | Luminosity | Snow |
|---|---|---|---|---|---|---|---|
| 1777968668 | 13.33° C | 96% | 1015.5 hPa | 3.05 mm | - | 0 W/m² | - |
| 1777968364 | 13.33° C | 96% | 1016 hPa | 1.27 mm | - | 0 W/m² | - |
| 1777968061 | 13.33° C | 96% | 1016 hPa | 1.78 mm | - | 0 W/m² | - |
| 1777967756 | 13.33° C | 96% | 1015.6 hPa | 3.05 mm | - | 0 W/m² | - |
| 1777967453 | 13.89° C | 96% | 1016.1 hPa | 3.05 mm | - | 0 W/m² | - |
| 1777967150 | 13.89° C | 96% | 1016.3 hPa | 4.83 mm | - | 0 W/m² | - |
| 1777966848 | 13.33° C | 96% | 1016.1 hPa | 3.05 mm | - | 0 W/m² | - |
| 1777966545 | 13.33° C | 96% | 1016.4 hPa | 3.56 mm | - | 0 W/m² | - |
| 1777966244 | 13.33° C | 96% | 1016.5 hPa | 3.05 mm | - | 0 W/m² | - |
| 1777965939 | 13.33° C | 96% | 1016.4 hPa | 1.27 mm | - | 0 W/m² | - |
| 1777965635 | 13.33° C | 95% | 1016.5 hPa | 1.78 mm | - | 0 W/m² | - |
| 1777965330 | 13.89° C | 95% | 1016.2 hPa | 1.78 mm | - | 0 W/m² | - |
| 1777965029 | 13.89° C | 95% | 1016.2 hPa | 1.27 mm | - | 0 W/m² | - |
| 1777964726 | 13.33° C | 95% | 1016.3 hPa | 3.05 mm | - | 0 W/m² | - |
| 1777964422 | 13.33° C | 95% | 1016.6 hPa | 3.05 mm | - | 0 W/m² | - |
| 1777964118 | 13.33° C | 95% | 1016.5 hPa | 1.27 mm | - | 0 W/m² | - |
| 1777963814 | 13.33° C | 95% | 1016.3 hPa | 3.05 mm | - | 0 W/m² | - |
| 1777963511 | 13.33° C | 95% | 1016.2 hPa | 3.05 mm | - | 0 W/m² | - |
| 1777963210 | 13.33° C | 95% | 1016.2 hPa | 1.27 mm | - | 0 W/m² | - |
| 1777962907 | 13.89° C | 94% | 1016.2 hPa | 3.05 mm | - | 0 W/m² | - |
| 1777962603 | 13.89° C | 94% | 1016.3 hPa | 3.05 mm | - | 0 W/m² | - |
| 1777962300 | 13.89° C | 94% | 1016.1 hPa | 1.27 mm | - | 0 W/m² | - |
| 1777961996 | 13.33° C | 94% | 1016.4 hPa | 0 mm | - | 0 W/m² | - |
| 1777961695 | 13.33° C | 94% | 1016.3 hPa | 0 mm | - | 0 W/m² | - |
| 1777961392 | 13.33° C | 94% | 1016.3 hPa | 1.78 mm | - | 0 W/m² | - |
* Rain latest hour (hover to see other rain measurements)
** Current wind speed in m/s (hover to see current wind gust speed)